Cloud_Cover
100 100 100 100 100 100 92 0 0 0 0 10 5 13 100 100 100 100 77 35 5 66 5 5 5 44 5 5 4 0 0 0 0 0 0 0 0 0 0 0 0 1 0 0
100 100 97 100 100 64 4 0 3 8 1 1 40 87 100 100 100 79 64 14 29 11 5 12 13 5 5 5 5 0 0 0 0 0 0 0 0 0 0 0 0 0 1 1
100 100 100 100 100 32 0 0 2 59 61 5 100 100 100 100 100 73 5 9 27 5 5 5 5 5 5 5 2 0 0 0 0 0 0 0 0 0 0 0 0 0 4 5
100 100 100 100 100 86 12 0 7 92 14 5 100 100 100 100 100 29 2 84 5 8 5 5 5 5 5 3 0 0 0 0 0 0 3 2 0 0 0 0 0 5 5 5
100 100 100 100 100 82 5 10 100 99 100 99 100 100 100 100 32 73 47 31 5 5 5 5 5 5 5 5 4 0 3 5 0 1 5 5 6 1 3 5 5 5 79 65
100 100 100 100 100 1 14 100 100 100 100 100 100 100 100 100 100 100 39 5 58 5 45 21 34 23 5 5 5 5 5 0 5 5 5 25 100 2 5 5 5 19 76 5
100 100 100 100 64 4 100 100 100 100 100 100 100 100 100 100 100 100 16 5 14 56 76 69 25 26 5 5 5 5 5 5 5 28 5 82 100 64 3 5 5 73 8 5
100 100 100 100 38 100 100 100 100 100 100 100 100 100 100 100 87 95 31 6 69 80 98 94 26 22 5 5 5 5 5 5 10 82 19 53 100 99 5 0 22 5 5 27
100 100 100 100 100 100 100 100 100 100 100 100 100 100 100 100 100 100 55 76 15 95 100 80 59 13 5 5 5 5 5 5 5 65 36 83 100 98 5 5 41 76 100 100
100 100 100 100 100 100 100 100 100 100 100 100 100 100 100 100 100 100 12 14 74 96 95 100 54 8 7 13 5 39 14 41 22 45 81 89 22 9 5 26 63 100 100 100
100 100 100 100 100 100 100 100 100 100 100 100 100 100 100 100 100 100 22 5 13 80 100 99 25 61 62 48 5 5 5 27 60 98 75 15 15 25 89 71 83 100 100 100
100 100 100 100 100 100 100 100 100 100 100 100 100 100 100 100 100 48 24 45 86 91 42 60 76 69 65 53 97 5 17 6 81 28 27 5 21 61 54 20 97 100 100 100
100 100 100 100 100 100 100 100 100 100 100 100 100 100 100 100 100 7 49 100 100 47 42 36 65 95 84 49 59 21 17 43 24 5 5 5 5 5 51 100 100 100 100 73
100 100 100 100 100 100 100 100 100 100 100 100 100 100 100 100 97 24 87 100 100 80 62 94 96 79 99 92 5 29 86 33 5 42 84 98 100 100 100 100 100 100 94 62
100 100 100 100 100 100 100 100 100 100 100 100 100 100 100 100 100 98 100 100 100 100 100 100 99 100 100 100 100 100 100 100 100 100 100 100 100 100 100 100 83 37 44 58
100 100 100 100 100 100 100 100 100 100 100 100 100 100 100 100 100 100 100 100 100 100 100 100 100 100 100 100 100 100 100 100 100 100 86 59 45 36 68 38 21 40 72 100
100 100 100 100 100 100 100 100 100 100 100 100 100 100 100 100 100 100 100 84 80 90 100 100 100 100 98 100 100 100 100 86 52 30 42 66 36 13 59 35 26 92 100 84
100 100 100 100 100 100 100 100 100 100 100 100 100 100 100 100 100 100 100 100 100 100 100 100 96 100 100 100 100 100 100 100 95 74 40 24 21 53 89 100 100 100 100 100
100 100 100 100 100 100 100 100 100 100 100 100 100 100 100 100 100 100 100 100 100 100 100 100 100 100 100 100 100 100 100 100 100 66 68 93 93 100 100 100 100 100 100 100
100 100 100 100 100 100 100 100 100 100 100 100 100 100 100 100 100 100 100 100 100 64 82 100 100 100 100 100 100 100 77 52 59 100 98 100 100 100 100 100 100 100 100 100
100 100 100 100 100 100 100 100 100 100 100 100 100 100 100 100 100 100 100 100 89 43 45 97 95 99 100 100 100 100 99 96 100 100 100 100 100 100 100 100 100 100 100 100
100 100 100 96 100 89 94 99 100 100 100 100 100 100 100 100 100 100 88 81 83 52 98 100 99 100 100 100 100 100 100 100 100 100 100 100 100 100 100 100 100 100 100 100
100 100 100 84 86 99 90 64 100 100 100 100 100 100 100 98 98 99 100 97 82 92 94 86 100 100 100 100 100 100 100 100 100 100 100 100 100 100 100 100 100 100 100 85
100 100 100 94 98 84 100 100 100 100 100 100 100 100 100 100 100 100 100 100 100 100 100 100 100 100 100 100 100 100 100 100 100 100 100 100 100 99 85 80 87 100 100 100
100 94 82 87 100 100 100 100 100 100 100 100 100 100 100 100 100 100 100 100 92 98 100 99 100 100 100 100 100 100 100 100 100 100 100 100 100 94 75 77 88 100 100 100
100 94 100 100 100 100 100 100 100 100 100 100 100 100 100 100 100 100 100 100 100 74 92 100 100 100 100 98 96 94 100 100 99 100 85 74 60 86 100 100 100 100 100 99
100 100 100 100 100 100 100 100 100 100 100 100 100 100 100 100 100 100 100 100 100 100 100 100 100 100 100 96 86 100 98 99 98 99 99 99 100 100 100 100 65 58 8 55